SL-16 DEB, 22441

Orbit data source: Space-Track

SL-16 DEB, 22441 is space debris in LEO originally from a launch on Fri, 25 Dec 1992 UTC launched from the Tyuratam Missile And Space Complex (TTMTR). Debris objects in space refer to the collection of defunct objects orbiting the Earth. Examples of debris include non-operational satellites, rocket bodies, and fragments generated from explosions, collisions, or faulty payload assembly.

Loading next visibility...
Identifier
22441, 1992-093EJ
Orbit
LEO
Country
Flag of CISCIS
Related business
Manufacturer
Unknown
Mission
Spacecraft
Bus & Motor
Unknown
Mass
Unknown
Launch date (UTC)
1992-12-25 (33 years ago)
Launch vehicle
Unknown
Launch site
Tyuratam Missile And Space Complex (TTMTR)
Object type
Payload
Rocket body
Debris
Shape & HBR
Unknown shape, 0.5 m
Radar Cross Section
Medium (>0.1 m² and <1 m²)

Expand to show TLE details & history
Last TLE update: 11 hours ago

TLE from 11 hours ago
0 SL-16 DEB
1 22441U 92093EJ  26133.00167794  .00000542  00000-0  35459-3 0  9995
2 22441  71.1967 340.0979 0082301 335.4307 174.3981 14.04905630705217
Epoch: 2026-05-13T00:02Z
TLE epoch observation values (Epoch: 2026-05-13T00:02:24.974Z)
Latitude
28.3767°
Longitude
-81.81669°
Altitude
939.281 km
Speed
7.355 km/s
True Right ascension
09h 58m 13s
True Declination
28° 14' 12"
Sunlit
Object was in daylight at epoch
Visualization orbit readout
Latitude
Unknown
Longitude
Unknown
Altitude
Unknown
Speed
Unknown
Apparent Right ascension
Unknown
Apparent Declination
Unknown
Sunlit
N/A
Visualization observer readout
Local Sidereal Time
19:34:07
Azimuth
Unknown
Elevation
Unknown
Doppler factor
Unknown
Orbital elements
Apogee altitude
934.465 km
Perigee altitude
815.081 km
Semi-major axis
7,252.91 km
Eccentricity
0.00823
Inclination
71.1967°
RAAN
340.0979°
Arg. of periapsis
335.4307°
True anomaly
174.48923°
Mean anomaly
174.3981°
Eccentric anomaly
174.44376°
Mean motion
3.51378 °/min
Orbital period
102.45 mins
BSTAR
0.00035459
Loading maneuver chart data...
Computing Atmospheric mass density...
Loading historical data...
Loading historical data...
Loading historical data...
Loading historical data...
Loading historical data...
Loading historical data...
Loading historical data...

Documentation

Showing up to 5 results
|